User: anonymous   Login
Location: Canyon Rim
(40.8777°N, 111.8641°W)
Time: 08:39:07
(UTC+00:00)
Language:

JY1SAT - Orbit

View from above orbital plane
View from above orbital plane
View from above satellite
View from above satellite

Ground track
Ground track

The orbit data is extracted from the following two-line orbital elements,

1 43803U 18099AX  21170.74117965  .00000867  00000-0  82523-4 0  9991
2 43803  97.6628 241.3088 0016143  48.0550 312.2044 14.95873110138839
Epoch (UTC): 19 June 2021 17:47:17
Eccentricity: 0.0016143
inclination: 97.6628°
perigee height: 568 km
apogee height: 591 km
right ascension of ascending node: 241.3088°
argument of perigee: 48.0550°
revolutions per day: 14.95873110
mean anomaly at epoch: 312.2044°
orbit number at epoch: 13883

The dashed part of the orbit path shows where the satellite is in the earth's shadow,  

DLR